Observations

BIA Manual Entry


Date Temp Humidity Rainfall Dew Point Wind Direction Wind Speed Wind Pressure Condition Visibility
2025-05-08 21:59:17 28 83 0.0 25 080 3.8 1009 Partly Cloudy (Night) 10 KM
2025-05-08 21:02:14 29 77 0.00 25 110 3.8 1008 Partly Cloudy (Night) 10 km
2025-05-08 20:01:21 30 71 0.00 24 020 5.7 1007 Partly Cloudy (Night) 10 km
2025-05-08 19:01:23 31 69 0.00 24 360 7.6 1007 Partly Cloudy (Night) 10 km
2025-05-08 18:00:44 31 68 0.0 25 360 11.4 1007 Partly Cloudy (Night) 10 km
2025-05-08 17:00:37 32 67 0.00 25 350 11.4 1007 Partly Cloudy (Day) 20 km
2025-05-08 15:58:43 33 61 0.00 23 340 15.2 1006 Partly Cloudy (Day) 20 km
2025-05-08 14:59:24 33 59 0.00 24 010 17.1 1006 Partly Cloudy (Day) 20 km
2025-05-08 13:59:46 34 51 0.00 23 350 13.3 1007 Partly Cloudy (Day) 20 km
2025-05-08 13:03:21 34 52 0.0 22 360 15.2 1008 Partly Cloudy (Day) 20 KM
2025-05-08 11:59:24 32 63 0.0 24 360 5.7 1009 Partly Cloudy (Day) 20 KM
2025-05-08 11:03:47 32 64 0.0 24 130 3.8 1009 Partly Cloudy (Day) 20 KM
2025-05-08 09:59:44 31 77 0.0 25 100 7.6 1010 Partly Cloudy (Day) 20 KM
2025-05-08 09:02:21 30 75 0.0 25 090 9.5 1010 Partly Cloudy (Day) 20 KM
2025-05-08 07:56:50 29 84 25 090 3.8 1010 Partly Cloudy (Night) 20 KM
2025-05-08 06:58:25 26 90 25 210 5.7 1009 Partly Cloudy (Night) 20 KM
2025-05-08 06:02:39 26 94 25 120 7.6 1008 Partly Cloudy (Night) 10 KM
2025-05-08 04:56:48 26 91 25 150 1.9 1008 Partly Cloudy (Night) 10 KM
2025-05-08 03:58:21 26 92 25 160 3.8 1008 Partly Cloudy (Night) 10 KM
2025-05-08 02:58:34 27 90 25 180 1.9 1007 Partly Cloudy (Night) 10 KM
2025-05-08 02:01:56 27 87 25 000 00 1008 Partly Cloudy (Night) 10KM
2025-05-08 01:08:46 27 87 25 140 1.9 1008 Partly Cloudy (Night) 10KM
2025-05-08 00:12:23 27 85 25 060 3.8 1009 Partly Cloudy (Night) 10KM
2025-05-07 23:03:40 27 84 25 060 3.8 1009 Partly Cloudy (Night) 10KM
2025-05-07 20:59:11 29 72 0.00 24 020 7.6 1008 Partly Cloudy (Night) 10KM